Oakland, CA

1:52 PM PDT on May 21, 2018 (GMT -0700)
Metro Oakland International

Weather History for KOAK - March, 2014

Change the Weather History Date:

Sunday, March 9, 2014

  Actual Average Record
Temperature  
Mean Temperature 63 °F 54 °F  
Max Temperature 71 °F 62 °F 78 °F (2004)
Min Temperature 55 °F 46 °F 37 °F (1958)
Degree Days  
Heating Degree Days 2 11  
Month to date heating degree days 52 104  
Since 1 July heating degree days 1873 2126  
Cooling Degree Days 0 0  
Month to date cooling degree days 0 0  
Year to date cooling degree days 0 0  
Growing Degree Days 12 (Base 50)    
Moisture  
Dew Point 51 °F    
Average Humidity 69    
Maximum Humidity 80    
Minimum Humidity 57    
Precipitation  
Precipitation T in 0.10 in 0.45 in (1949)
Month to date precipitation 0.42 1.03  
Year to date precipitation 4.12 8.97  
Since 1 July precipitation 6.19  
Sea Level Pressure  
Sea Level Pressure 30.13 in    
Wind  
Wind Speed 6 mph (WNW)    
Max Wind Speed 13 mph    
Max Gust Speed 18 mph    
Visibility 10 miles    
Events Rain    
T = Trace of Precipitation, MM = Missing Value Source: NWS Daily Summary

Daily Weather History Graph

Daily Weather History Graph

Search for Another Location

Airport or City:

Astronomy

Mar. 09, 2014 Rise Set
Actual Time 7:28 AM PDT 7:10 PM PDT
Civil Twilight 7:02 AM PDT 7:36 PM PDT
Nautical Twilight 6:32 AM PDT 8:07 PM PDT
Astronomical Twilight 6:01 AM PDT 8:37 PM PDT
Moon 1:12 PM PDT (3/9) 3:54 AM PDT (3/9)
Length of Visible Light 12h 34m
Length of Day
11h 41m
First Quarter, 62% of the Moon is Illuminated
Mar 9
First Quarter
Mar 16
Full
Mar 23
Last Quarter
Mar 30
New
Apr 7
First Quarter

Hourly Weather History & Observations

Time (PDT) Temp. Dew Point Humidity Pressure Visibility Wind Dir Wind Speed Gust Speed Precip Events Conditions
12:53 AM 61.0 °F 51.1 °F 70% 30.17 in 10.0 mi SE 8.1 mph - 0.00 in Rain Light Rain
1:53 AM 59.0 °F 53.1 °F 81% 30.17 in 10.0 mi NE 5.8 mph - 0.00 in Rain Light Rain
3:53 AM 60.1 °F 53.1 °F 78% 30.17 in 10.0 mi NNW 3.5 mph - 0.00 in   Overcast
4:53 AM 57.9 °F 50.0 °F 75% 30.14 in 10.0 mi ENE 8.1 mph - N/A   Mostly Cloudy
5:53 AM 60.1 °F 50.0 °F 69% 30.14 in 10.0 mi SW 3.5 mph - N/A   Mostly Cloudy
6:53 AM 55.0 °F 48.9 °F 80% 30.15 in 10.0 mi Calm Calm - N/A   Mostly Cloudy
7:53 AM 57.0 °F 51.1 °F 81% 30.15 in 10.0 mi SW 3.5 mph - N/A   Overcast
8:53 AM 59.0 °F 53.1 °F 81% 30.16 in 10.0 mi ESE 4.6 mph - N/A   Mostly Cloudy
9:53 AM 62.1 °F 51.1 °F 67% 30.17 in 10.0 mi ESE 3.5 mph - N/A   Overcast
10:53 AM 64.0 °F 53.1 °F 67% 30.17 in 10.0 mi Calm Calm - N/A   Mostly Cloudy
11:53 AM 64.0 °F 54.0 °F 70% 30.16 in 10.0 mi WSW 5.8 mph - N/A   Mostly Cloudy
12:53 PM 66.0 °F 51.1 °F 59% 30.14 in 10.0 mi West 5.8 mph - N/A   Mostly Cloudy
1:53 PM 66.0 °F 52.0 °F 60% 30.13 in 10.0 mi WNW 8.1 mph - N/A   Mostly Cloudy
2:53 PM 70.0 °F 53.1 °F 55% 30.11 in 10.0 mi WNW 9.2 mph - N/A   Mostly Cloudy
3:53 PM 68.0 °F 54.0 °F 61% 30.09 in 10.0 mi NW 9.2 mph - N/A   Mostly Cloudy
4:53 PM 69.1 °F 54.0 °F 58% 30.09 in 10.0 mi WNW 11.5 mph - N/A   Mostly Cloudy
5:53 PM 68.0 °F 53.1 °F 59% 30.07 in 10.0 mi NW 9.2 mph - N/A   Mostly Cloudy
6:53 PM 64.0 °F 52.0 °F 65% 30.09 in 10.0 mi WNW 10.4 mph - N/A   Mostly Cloudy
7:53 PM 62.1 °F 50.0 °F 65% 30.09 in 10.0 mi NW 5.8 mph - N/A   Mostly Cloudy
8:53 PM 61.0 °F 48.9 °F 64% 30.11 in 10.0 mi NNW 4.6 mph - N/A   Mostly Cloudy
9:53 PM 62.1 °F 50.0 °F 65% 30.12 in 10.0 mi West 4.6 mph - N/A   Mostly Cloudy
10:53 PM 60.1 °F 48.0 °F 64% 30.13 in 10.0 mi WNW 8.1 mph - N/A   Mostly Cloudy
11:53 PM 60.1 °F 48.0 °F 64% 30.13 in 10.0 mi West 4.6 mph - N/A   Overcast
12:53 AM 60.1 °F 48.0 °F 64% 30.12 in 10.0 mi Calm Calm - N/A   Overcast